Skip Page Navigation
NASA JPL Caltech
NASA Logo - Jet Propulsion Laboratory + View the NASA Portal
+ Center for Near-Earth Object Studies
JPL Home Earth Solar System Stars & Galaxies Technology
JPL Solar System Dynamics
BODIES ORBITS EPHEMERIDES TOOLS PHYSICAL DATA DISCOVERY FAQ SITE MAP
JPL Small-Body Database Browser
Search: [ help ]  
5040 Rabinowitz (1972 RF)
Classification: Main-belt Asteroid          SPK-ID: 2005040
Ephemeris | Orbit Diagram | Orbital Elements | Mission Design | Physical Parameters | Discovery Circumstances | Close-Approach Data ]

[ show orbit diagram ]
Orbital Elements at Epoch 2459200.5 (2020-Dec-17.0) TDB
Reference: JPL 35 (heliocentric ecliptic J2000)
 Element Value Uncertainty (1-sigma)   Units 
e .2269894357484289 1.2355e-08  
a 2.41705205008535 6.9946e-09 au
q 1.868406769061893 3.1454e-08 au
i 24.36535842083567 1.1072e-06 deg
node 175.668566750986 2.1891e-06 deg
peri 149.6781979741129 4.3705e-06 deg
M 321.8528211662955 5.8956e-06 deg
tp 2459345.941168698357
(2021-May-11.44116870)
2.2772e-05 TDB
period 1372.547651810823
3.76
5.958e-06
1.631e-08
d
yr
n .262285975663611 1.1385e-09 deg/d
Q 2.965697331108807 8.5824e-09 au
  Orbit Determination Parameters
   # obs. used (total)      2196  
   data-arc span      18064 days (49.46 yr)  
   first obs. used      1971-03-24  
   last obs. used      2020-09-06  
   planetary ephem.      DE441  
   SB-pert. ephem.      SB441-N16  
   condition code      0  
   norm. resid. RMS      .39761  
   source      ORB  
   producer      Otto Matic  
   solution date      2021-Apr-12 17:04:09  

Additional Information
 Earth MOID = .883361 au 
 Jupiter MOID = 2.53783 au 
 T_jup = 3.362 
[ show covariance matrix ]

Ephemeris | Orbit Diagram | Orbital Elements | Mission Design | Physical Parameters | Discovery Circumstances | Close-Approach Data ]

Physical Parameter Table
Parameter Symbol Value Units Sigma Reference Notes
absolute magnitude H 12.99   n/a E2021B10  
rotation period rot_per 4.6901 h n/a LCDB (Rev. 2020-October); Warner et al., 2009 Published Reference List:
[Pravec, P.; Wolf, M.; Sarounova, L. (2013) http://www.asu.cas.cz/~ppravec/neo.htm]
[Stephens, R.D.; Coley, D.R. (2013) Minor Planet Bull. 40, 203-204.]
[Clark, M. (2014) Minor Planet Bull. 41, 100-101.]

5040 Rabinowitz (1972 RF)          Discovered 1972-Sep-15 by Gehrels, T. at Palomar
Reference: DISCOVERY.DBLast Updated: 2003-08-29

[ show close-approach data ]
Alternate Designations
 1972 RF = 1987 QE 
Ephemeris | Orbit Diagram | Orbital Elements | Mission Design | Physical Parameters | Discovery Circumstances | Close-Approach Data ]
ABOUT SSD CREDITS/AWARDS PRIVACY/COPYRIGHT GLOSSARY LINKS
FirstGov 2021-Apr-15 23:47 UT
(server date/time)  
NASA Home Page
Site Manager:   Ryan S. Park
Webmaster  Alan B. Chamberlin